RH
62 64 62 60 60 58 56 55 55 56 56 56 56 56 56 56 55 54 53 51 49 46 44 45 46 46 45 46 47 50 53 53 52 46 43 44 46 51 50 50 51 50 48
72 69 64 61 59 57 55 55 56 56 57 58 57 58 57 58 57 55 54 53 52 50 47 46 46 47 47 47 48 50 51 51 53 52 48 48 53 54 54 56 56 51 52
81 76 68 61 58 56 56 57 59 60 60 59 59 59 59 59 58 58 57 54 53 52 51 51 50 50 50 50 51 53 55 56 56 57 56 56 58 53 53 51 51 54 57
77 77 73 68 62 58 57 62 63 62 62 62 63 63 63 62 61 58 55 51 48 47 48 51 53 56 57 57 58 58 57 57 57 58 59 58 51 48 51 53 54 52 54
65 62 74 71 68 65 64 64 63 62 61 63 64 64 64 63 61 57 55 53 54 55 56 58 60 63 66 68 71 74 79 92 85 66 59 57 59 53 51 51 59 58 56
52 52 52 69 79 74 69 66 67 65 64 63 63 63 64 62 62 72 77 71 67 64 62 60 59 61 62 65 70 74 68 70 76 77 74 68 61 55 57 56 60 63 61
49 48 46 50 64 79 72 67 67 68 66 64 62 62 62 63 66 75 78 76 72 68 66 63 60 59 61 63 60 63 65 63 65 68 72 70 64 62 57 55 55 61 64
48 45 45 47 50 59 68 73 64 66 68 66 64 63 63 62 67 74 77 76 77 71 68 64 65 60 56 58 60 58 56 56 55 57 58 60 60 62 66 72 75 77 79
61 57 54 49 51 62 66 66 72 75 73 66 62 62 64 63 65 72 75 70 66 65 61 58 58 57 56 59 62 65 66 63 60 62 64 64 69 76 68 61 65 74 84
64 56 50 50 50 56 65 61 65 84 76 71 65 62 61 62 62 68 74 69 69 66 63 60 59 62 63 66 76 87 84 73 64 59 58 56 54 56 60 67 91 95 90
58 59 60 56 56 60 63 65 90 95 86 82 76 70 68 66 65 72 77 76 76 73 68 63 58 56 58 62 64 81 89 63 57 61 68 72 76 87 91 69 60 56 59
65 69 68 64 65 94 94 76 84 100 100 97 94 90 81 76 75 76 76 78 77 82 82 72 62 61 74 81 75 62 54 61 85 95 82 79 69 61 55 54 54 60 64
87 91 80 78 85 91 100 100 100 100 100 92 89 88 84 76 71 70 74 75 75 78 82 78 77 68 60 73 82 63 53 60 84 81 62 57 56 58 58 64 70 75 77
89 89 93 98 97 100 96 95 97 90 91 90 90 88 87 84 79 72 63 63 67 69 66 66 64 63 60 69 84 74 60 55 56 58 63 61 64 68 71 73 78 81 83
84 93 93 88 91 91 93 94 97 96 96 95 92 90 88 87 78 78 83 85 80 78 73 77 76 82 86 91 68 66 57 54 56 57 63 68 70 71 72 74 78 81 84
84 83 84 85 84 86 87 87 89 93 93 90 89 94 94 93 90 85 76 74 73 75 85 96 93 77 67 62 57 53 51 52 57 67 72 73 75 76 77 78 79 82 82
97 93 88 87 85 85 83 82 81 77 83 84 81 80 81 84 88 89 86 86 83 84 97 93 81 73 66 61 56 53 56 65 71 79 85 87 88 88 85 88 85 83 83
99 96 94 88 85 80 78 79 80 80 77 74 75 80 78 74 74 74 76 78 86 96 92 84 81 76 72 72 71 72 79 87 94 92 93 93 92 92 92 91 87 86 85
98 92 89 84 80 79 80 80 79 80 80 78 76 77 79 80 78 78 86 97 96 85 83 85 83 80 80 85 87 90 96 100 100 99 97 95 95 94 93 90 88 83 82
100 100 92 92 81 80 80 78 76 79 77 77 78 76 77 81 82 78 81 81 86 86 92 90 87 86 88 94 95 100 100 100 100 100 98 97 95 94 94 92 90 90 87
96 93 90 87 81 90 80 74 76 76 77 75 75 74 78 90 90 89 88 95 94 97 96 92 88 88 92 97 100 100 100 100 100 100 99 97 95 94 92 92 92 91 90
100 94 90 87 84 83 78 77 82 82 80 77 74 74 74 84 90 93 88 88 92 96 99 97 94 92 93 97 100 100 100 100 100 100 98 96 96 94 93 93 92 90 89
99 93 89 88 90 88 86 84 86 81 78 75 75 76 76 76 79 78 83 84 94 100 98 94 92 88 78 84 95 100 100 100 99 98 99 97 95 95 93 92 90 87 87
84 96 91 89 86 86 84 83 84 81 85 84 79 78 79 80 85 86 87 98 100 100 91 84 81 81 69 66 76 91 100 98 100 100 100 98 96 94 92 92 91 90 91
78 76 85 83 90 86 86 89 91 83 81 79 74 75 76 82 87 90 96 100 98 87 77 75 75 70 67 72 84 87 86 100 100 100 99 97 96 95 94 94 94 88 86
96 88 88 88 86 86 85 83 83 82 81 83 85 87 87 90 92 96 100 100 90 85 80 70 59 53 70 83 88 90 99 100 100 97 98 98 96 96 94 90 91 92 88
Wind_Speed
4 3 3 3 5 6 7 9 10 10 11 12 13 13 14 14 14 14 15 16 18 19 18 18 20 19 20 19 18 19 20 20 21 23 23 24 25 26 27 29 30 31 29
5 5 6 7 8 9 10 11 11 12 12 13 14 14 15 14 15 16 17 18 19 20 21 21 21 20 20 20 20 21 21 21 22 24 24 24 25 25 28 28 29 31 32
7 7 9 10 11 12 12 12 12 12 13 14 14 15 16 16 17 17 18 20 21 22 22 22 22 21 22 21 21 21 21 21 21 24 26 26 26 25 28 28 30 31 31
10 10 12 13 13 13 13 13 14 14 15 15 16 16 17 17 18 18 19 21 23 23 23 23 23 23 24 23 22 22 23 23 24 26 27 27 26 27 27 28 28 28 31
14 14 14 14 14 14 15 15 16 16 17 17 17 18 18 19 19 19 20 21 23 25 25 25 26 25 26 27 26 26 26 25 25 27 27 27 27 25 26 26 28 29 32
15 18 19 18 16 17 18 18 19 20 19 19 19 20 20 21 20 22 23 25 27 28 29 29 28 28 29 30 30 30 30 30 29 27 26 27 32 30 29 28 28 26 21
19 21 23 24 23 20 19 20 22 23 22 22 22 22 23 23 23 24 24 27 28 29 30 30 30 29 28 28 29 29 31 33 33 33 32 33 33 34 32 32 32 32 33
24 27 29 29 30 27 23 22 23 24 24 24 24 24 24 25 24 25 26 28 29 30 30 31 31 31 31 30 29 30 31 31 30 31 32 34 34 36 36 37 37 39 41
32 34 33 31 31 30 29 27 23 23 24 25 25 26 26 27 26 26 25 27 29 30 30 31 31 32 31 30 31 32 33 33 33 34 36 38 39 40 41 41 36 31 29
35 32 31 29 30 31 30 30 25 23 26 26 27 27 27 29 28 28 27 29 30 31 31 31 32 33 33 32 32 30 30 33 32 33 34 36 37 38 38 39 33 27 25
32 30 29 27 28 28 27 26 23 22 24 25 26 27 28 28 29 29 29 31 30 30 30 29 29 29 30 30 31 31 31 34 37 37 36 35 35 31 26 27 28 30 29
29 27 27 26 26 21 22 23 23 21 21 22 23 26 27 28 28 29 31 31 32 32 32 32 32 31 32 32 32 34 35 37 35 30 29 29 26 26 28 29 29 30 31
23 24 25 24 23 22 21 21 21 21 22 23 23 23 25 24 25 26 29 30 31 33 33 33 33 33 34 34 33 32 31 30 27 22 24 25 27 28 30 30 31 32 35
23 23 22 21 21 20 20 21 21 22 23 23 22 23 23 24 24 24 24 22 22 26 30 32 31 30 29 29 30 26 24 24 25 26 28 29 29 29 30 29 29 29 30
22 22 22 22 22 22 22 23 23 24 24 22 23 23 23 23 27 24 21 23 24 27 28 29 28 28 28 22 20 21 24 26 26 27 27 27 28 29 30 30 30 30 30
23 22 22 21 20 20 20 21 22 26 26 27 29 31 32 33 31 29 29 29 30 31 33 17 4 10 15 19 23 26 27 28 27 26 26 27 28 29 31 30 31 31 31
23 22 22 22 22 21 21 21 21 21 22 24 26 28 29 30 29 29 29 28 28 28 4 3 8 11 16 21 24 25 25 25 25 26 27 28 29 30 32 30 31 32 32
22 23 23 22 21 21 21 21 21 21 20 19 18 21 23 24 25 26 26 26 25 4 5 7 10 14 18 21 23 24 24 25 25 26 26 28 29 30 30 31 32 31 32
19 20 20 20 20 21 21 20 19 19 20 19 18 18 17 19 22 23 23 16 7 9 11 12 14 17 21 22 24 25 25 26 27 27 29 30 31 31 32 34 35 40 40
18 21 23 22 22 20 19 19 19 19 19 18 18 19 15 14 15 17 18 17 14 13 13 15 17 20 22 24 25 25 26 27 28 29 30 31 34 34 35 36 36 35 35
16 17 17 18 19 17 17 19 19 18 18 17 17 17 16 18 18 20 17 13 12 14 15 17 19 22 24 25 26 26 27 29 31 32 33 35 37 37 38 38 39 40 39
17 17 17 17 17 17 18 17 17 17 17 17 17 17 18 19 18 12 12 13 14 16 17 18 22 24 26 27 27 28 29 32 34 35 37 39 39 40 40 40 41 41 41
21 20 20 19 17 17 16 15 16 15 15 16 16 16 16 16 16 16 15 16 17 17 19 21 25 29 32 32 31 31 32 36 40 40 41 42 42 42 42 42 44 43 42
13 15 17 16 15 15 15 15 15 16 17 16 16 16 16 16 16 18 19 19 18 20 23 27 30 33 37 38 38 37 37 43 45 44 44 45 48 50 50 50 49 48 47
17 15 14 14 14 13 13 13 13 13 14 15 15 15 16 17 17 17 18 18 21 25 30 32 34 36 38 40 42 45 47 46 48 49 51 50 51 53 55 51 37 43 47
24 18 14 12 13 13 13 13 13 13 14 14 14 14 14 14 16 17 17 19 24 29 33 37 38 39 40 43 44 44 45 46 49 51 54 54 49 42 38 46 47 41 41
Wind_Direction
185 210 251 271 281 284 281 279 280 284 287 288 291 293 292 295 295 291 287 286 283 282 278 275 275 273 272 270 269 268 267 269 274 283 286 292 295 299 302 304 307 307 306
218 239 256 266 272 274 275 277 280 281 285 286 287 288 290 292 290 286 285 282 280 279 278 276 272 272 268 268 266 266 267 270 275 283 287 290 292 295 298 299 301 302 302
234 251 264 268 270 271 274 276 277 279 280 282 284 285 286 284 283 281 279 280 278 276 276 273 272 270 268 266 266 268 270 273 274 279 285 289 288 293 294 296 297 297 298
249 261 267 269 271 273 274 274 278 281 282 284 283 281 280 280 279 278 278 278 278 277 274 271 270 267 267 268 268 269 272 273 276 279 283 283 286 289 288 289 288 293 296
261 264 265 267 268 271 274 277 279 280 280 280 280 279 277 275 274 275 276 278 278 277 275 273 272 269 267 266 266 266 266 269 274 278 280 283 281 286 286 290 291 293 289
262 268 275 273 272 271 274 276 276 275 274 275 274 275 275 272 272 273 275 278 278 277 277 275 273 271 269 268 267 268 272 271 270 273 280 281 283 284 286 287 286 286 285
269 272 273 274 271 268 270 271 270 269 271 270 271 272 272 272 273 274 275 276 276 274 273 273 273 271 270 270 271 271 271 270 268 273 274 274 278 277 281 282 280 279 279
276 275 274 274 273 266 264 266 270 266 265 267 268 269 270 271 272 274 275 276 275 272 270 270 270 271 269 268 269 271 271 272 272 269 267 269 270 273 273 273 275 277 277
273 273 271 273 274 267 262 269 268 263 262 264 267 268 267 270 272 272 273 275 275 272 270 269 268 268 269 269 269 268 272 274 275 274 273 273 272 274 277 278 277 278 276
267 269 274 275 272 269 266 269 266 259 262 264 265 264 265 268 270 269 271 276 276 274 272 270 268 266 267 266 264 266 269 271 278 281 279 278 276 275 275 276 275 279 279
273 276 276 274 270 269 268 267 261 258 258 258 262 264 264 266 269 269 270 270 268 269 269 270 268 268 267 268 269 269 271 279 276 276 278 278 277 273 270 275 276 279 280
275 274 273 272 268 260 259 261 258 253 252 258 261 262 263 266 266 268 270 267 266 265 264 265 267 268 269 270 271 273 273 275 278 279 281 277 277 282 284 281 280 278 273
259 257 267 268 264 260 255 253 253 250 250 255 255 257 262 265 267 268 269 268 266 265 265 265 267 269 271 273 276 279 280 283 281 281 282 282 286 285 285 283 280 276 273
259 257 259 259 261 259 256 254 251 248 248 250 252 255 260 265 268 267 267 267 265 263 262 265 267 269 271 278 283 279 281 284 286 286 285 285 285 284 280 277 275 274 272
261 259 264 263 262 262 258 255 249 248 247 250 252 255 256 258 259 261 263 265 265 263 264 259 255 260 265 268 283 286 284 283 281 281 280 281 281 279 276 275 272 272 269
263 262 260 260 262 261 262 264 260 258 258 258 259 255 252 254 265 270 269 267 265 267 266 267 246 282 290 288 286 284 282 280 277 278 280 280 278 277 277 276 273 270 269
257 261 264 263 263 261 261 262 269 270 267 265 264 265 267 270 269 271 273 273 273 278 221 294 289 293 293 291 285 281 278 275 278 280 277 275 276 276 277 276 273 271 270
258 261 260 257 257 258 259 261 264 267 272 272 269 267 267 267 268 268 270 270 270 248 292 298 299 298 292 283 279 276 274 274 274 276 276 274 275 274 275 271 269 269 269
254 256 256 258 258 257 257 257 258 261 264 270 276 275 272 269 267 267 268 280 299 287 285 292 293 288 282 277 275 273 270 271 274 277 275 275 276 275 272 270 270 271 272
254 255 256 250 247 252 254 255 257 257 260 265 268 271 273 272 268 268 266 267 267 275 284 285 282 280 278 275 275 272 272 273 274 275 274 275 275 274 271 270 269 269 268
255 257 259 258 259 244 244 253 257 259 262 266 267 269 262 249 259 263 257 255 257 269 271 275 280 280 278 277 274 271 271 272 274 275 275 276 277 275 274 271 269 269 267
251 251 252 252 254 254 256 257 253 254 259 263 269 270 271 273 276 278 274 268 268 271 272 279 282 282 280 278 275 273 272 273 276 276 276 277 278 278 276 272 270 268 266
242 242 243 244 247 250 255 256 250 251 259 264 267 270 269 267 266 268 275 278 279 277 281 284 286 286 289 286 280 273 272 273 275 277 277 279 280 278 275 273 271 269 267
266 241 244 241 242 245 248 251 252 256 258 259 261 265 266 266 265 276 275 273 274 279 286 291 292 290 294 296 293 287 280 280 279 277 277 277 277 277 275 271 269 269 265
246 244 242 246 243 250 256 248 240 250 256 260 263 266 270 274 272 269 270 272 277 289 297 299 297 297 299 300 300 300 301 290 287 285 284 281 280 281 279 278 284 289 282
237 230 225 231 235 241 244 247 251 253 255 260 263 268 272 272 273 273 275 279 288 297 299 300 301 303 305 307 309 308 296 293 293 293 292 288 287 290 300 296 289 287 288